Wind_Speed
18 16 14 13 12 11 9 9 9 8 8 6 5 6 6 7 6 7 7 7 7 7 8 8 8 8 8 8 7 9 10 10 9 9 8 8 8 9 9 9 9 8 8 8
20 18 17 16 14 14 14 12 10 8 10 8 7 7 7 8 8 8 8 8 8 7 8 7 8 8 8 8 8 9 9 10 10 9 9 9 9 8 8 9 9 9 8 8
20 18 19 18 17 16 15 13 11 11 11 11 10 10 9 9 8 9 9 9 8 8 8 8 8 8 8 8 8 9 9 9 9 9 9 9 9 9 9 9 9 10 9 9
23 22 21 20 19 18 17 15 14 12 12 11 11 11 11 12 10 9 9 9 8 8 8 8 8 8 8 8 8 8 9 9 9 10 10 9 9 9 9 10 10 10 10 10
24 23 21 20 19 19 18 15 14 13 13 13 12 12 12 13 12 9 9 9 8 8 8 8 8 8 8 8 8 9 9 9 9 9 10 10 10 10 10 11 10 10 11 12
24 24 22 21 21 21 19 17 15 14 15 17 16 14 13 12 10 8 8 9 8 7 8 8 8 8 8 9 9 10 9 9 9 10 11 10 10 11 11 11 11 11 11 12
26 24 23 22 22 22 20 19 16 17 17 17 15 15 15 13 12 10 10 9 9 8 8 8 8 9 9 9 10 10 10 9 10 11 11 11 11 11 11 11 10 11 12 12
25 24 24 24 23 21 21 20 19 16 14 15 15 16 15 14 15 14 13 11 10 9 9 9 9 9 9 10 10 10 10 10 11 11 11 12 12 11 11 11 11 11 12 12
20 21 24 24 23 22 22 22 19 16 15 14 14 15 16 15 16 15 15 12 11 11 11 10 10 10 10 11 11 11 11 11 11 11 12 12 12 12 12 12 12 12 12 12
23 20 21 23 24 24 23 21 20 20 19 16 15 14 15 16 14 14 14 14 14 12 11 11 11 11 11 12 12 12 12 12 12 12 13 13 13 13 13 13 13 13 13 14
25 23 21 23 25 24 24 22 20 20 19 17 14 14 16 17 17 16 14 14 15 14 13 13 13 12 12 12 13 13 13 13 13 14 14 14 13 13 13 14 14 14 14 14
26 24 22 22 23 23 23 22 21 21 21 18 17 17 15 15 17 16 15 15 15 15 15 14 14 14 13 13 13 13 14 14 14 15 15 14 14 14 14 15 15 15 15 16
28 27 24 22 22 23 24 24 23 22 20 20 20 19 17 17 17 18 17 17 17 16 16 16 16 15 15 14 14 14 15 15 15 16 16 15 15 15 16 16 16 16 16 16
31 30 27 23 21 21 23 23 23 23 22 21 21 20 19 20 20 20 19 18 18 17 17 17 16 16 16 16 16 16 16 16 17 17 17 16 16 16 16 16 16 16 17 16
32 31 30 26 23 22 21 22 23 25 23 21 20 21 21 21 21 21 19 20 20 19 19 18 18 17 17 17 17 17 18 18 18 18 18 18 17 17 18 18 17 17 17 17
32 33 32 30 27 23 23 22 22 22 23 22 21 20 21 21 21 20 20 21 22 21 21 20 19 18 18 18 18 18 19 19 19 19 19 18 18 18 19 18 17 17 17 17
32 33 32 29 26 25 24 23 23 22 23 23 23 22 20 21 21 22 22 21 22 22 22 21 20 19 19 19 19 19 19 19 19 19 19 19 19 19 18 19 18 18 18 18
32 32 31 28 26 26 26 24 23 23 23 24 25 25 24 23 22 23 23 22 21 22 21 21 20 20 20 20 20 20 20 20 20 20 20 20 19 19 19 19 18 17 17 17
32 32 31 29 26 24 23 24 24 25 26 24 24 24 23 23 23 23 24 22 22 23 22 22 22 21 21 21 22 21 21 21 21 21 20 20 20 20 20 20 18 18 18 17
32 32 33 31 28 25 25 25 25 24 27 26 25 26 25 24 24 23 22 22 23 24 24 24 23 23 22 22 22 21 22 22 22 22 21 21 21 21 20 20 19 20 20 19
31 32 34 32 29 28 27 23 24 26 27 28 27 27 27 26 25 24 24 24 24 25 25 25 24 24 23 23 22 22 23 23 23 22 22 21 21 21 21 21 21 21 21 21
30 31 33 33 31 30 30 28 27 27 28 29 29 28 28 27 26 26 26 26 25 26 26 25 25 25 25 24 24 24 24 24 23 22 22 23 23 23 23 22 21 21 22 22
31 32 32 34 35 34 31 30 29 28 29 30 30 30 29 29 28 28 27 27 26 26 25 25 26 25 26 26 25 25 25 25 25 25 24 24 24 24 24 23 22 22 22 22
33 33 34 35 36 36 32 29 29 29 30 30 29 29 30 30 30 29 28 28 28 27 26 25 25 25 25 26 26 25 25 25 25 26 25 25 25 24 24 24 24 24 24 24
32 33 35 36 35 35 35 33 30 30 30 30 30 29 29 29 30 29 28 28 28 27 26 25 25 25 25 25 25 26 26 26 26 26 26 25 25 24 24 24 25 25 25 25
33 34 36 36 35 34 34 34 33 32 32 32 31 31 31 30 30 29 29 29 28 28 27 26 25 26 26 26 26 26 26 26 27 27 26 26 26 25 25 26 26 25 25 25
Wind_Direction
208 207 207 208 203 193 202 217 233 242 256 263 274 284 295 310 316 313 322 336 344 349 354 354 353 356 356 353 351 350 349 348 347 347 348 347 346 345 348 352 355 352 349 344
212 214 212 209 207 203 209 214 222 236 250 254 264 272 284 295 308 310 313 318 329 340 348 352 348 349 351 351 352 351 351 348 347 346 347 345 347 351 352 352 356 354 348 342
214 218 220 213 212 212 215 215 216 225 244 257 262 259 268 281 291 298 305 311 319 330 341 343 343 341 342 344 347 347 347 347 345 345 347 348 345 343 346 348 347 346 346 341
215 219 218 215 216 215 218 216 216 223 240 256 270 269 272 280 283 291 296 298 309 321 332 337 339 338 337 338 339 342 344 347 344 341 344 344 342 340 340 342 341 342 342 342
218 220 218 217 219 216 215 219 222 221 232 241 255 262 265 275 274 289 297 296 300 308 318 327 335 336 334 334 336 336 336 340 340 339 340 342 339 336 335 337 337 339 338 335
218 221 218 218 220 220 217 215 222 228 233 241 243 249 258 263 269 280 291 292 293 300 306 319 325 330 332 333 334 336 337 338 339 340 339 338 336 335 335 335 334 336 340 338
217 221 218 218 219 219 217 215 222 234 238 242 245 248 254 255 266 261 264 276 288 295 298 307 315 319 325 329 333 334 336 335 334 334 336 337 335 334 334 335 336 336 338 340
220 221 224 222 220 220 218 217 221 229 236 246 244 245 249 248 256 256 258 264 272 281 287 291 298 306 316 323 328 332 333 332 333 333 334 334 334 333 332 331 331 332 335 337
217 225 228 224 220 217 219 220 221 228 228 240 238 244 247 253 256 256 257 259 268 277 286 290 295 299 305 311 317 322 327 328 327 327 330 331 331 331 331 330 328 327 328 330
207 214 223 224 221 219 218 222 220 225 230 234 234 237 250 252 259 261 259 261 267 274 278 282 290 294 299 304 308 312 316 321 321 321 322 325 327 325 324 324 323 324 324 324
208 211 217 223 223 220 216 216 220 229 231 232 236 233 242 252 260 261 262 262 264 268 274 279 283 288 294 298 300 304 309 313 315 317 317 318 319 320 320 320 321 321 321 321
207 208 215 222 227 221 219 219 220 225 228 229 237 244 246 247 256 264 263 266 266 265 271 275 277 283 289 295 298 302 305 308 310 312 312 313 313 312 313 313 314 315 316 317
208 208 211 216 223 222 219 219 220 223 228 231 235 243 250 255 254 259 262 263 264 264 268 271 273 281 286 291 294 298 301 305 307 307 307 307 310 310 309 308 308 310 312 314
210 211 208 211 218 223 227 221 220 222 225 231 238 244 244 251 257 257 259 261 263 263 266 269 271 278 284 289 290 292 296 301 304 306 305 302 304 306 306 305 305 306 310 311
211 213 211 207 208 217 224 225 223 223 224 229 238 244 248 250 252 256 260 263 263 264 266 268 271 276 282 287 288 290 293 297 299 301 303 300 299 302 303 301 302 303 305 306
211 212 212 213 212 212 216 219 222 224 225 229 235 242 248 254 256 257 260 263 264 265 266 267 269 274 278 281 284 288 292 295 298 301 301 300 299 301 300 296 298 302 302 302
213 212 213 215 217 214 217 216 218 221 222 225 232 235 245 254 259 260 262 265 265 263 264 266 268 271 275 278 281 286 291 293 297 300 300 300 300 301 300 295 295 298 299 299
214 213 214 217 218 222 221 218 218 222 224 227 233 239 242 251 255 259 262 263 262 262 263 265 268 269 272 275 279 283 286 291 295 297 299 299 301 303 303 302 296 295 298 298
218 217 213 216 222 220 222 220 220 223 227 229 232 238 241 248 254 256 259 262 263 263 265 267 268 269 272 274 278 282 285 288 292 295 296 298 300 301 301 301 298 297 298 300
218 218 215 214 218 220 222 220 220 225 231 231 236 240 242 246 251 254 257 261 265 265 265 266 267 269 272 274 276 279 284 287 289 290 292 294 297 300 301 300 298 297 296 298
217 217 216 216 220 223 222 222 223 226 231 233 236 241 244 248 251 257 260 261 263 265 265 266 266 268 271 272 273 278 282 287 287 288 291 293 295 297 299 297 295 294 293 294
219 219 219 218 219 226 223 219 222 227 232 236 238 241 246 249 252 255 258 261 263 265 263 264 266 266 269 272 276 279 281 285 286 287 292 292 293 294 294 294 292 292 292 293
215 217 219 220 223 227 228 227 228 231 234 238 242 244 248 251 253 257 258 260 262 266 265 266 265 266 268 271 275 278 281 284 286 288 290 292 292 291 292 293 290 290 291 293
219 220 220 223 226 227 231 231 232 232 237 240 243 245 248 252 255 257 258 259 262 263 266 266 265 266 269 271 275 278 280 281 283 286 289 292 293 293 291 289 289 290 291 292
216 216 220 226 229 230 233 234 235 237 239 241 243 245 248 251 254 257 260 261 261 264 265 265 264 266 269 271 273 276 279 281 283 286 289 291 294 293 292 290 290 291 290 290
219 222 224 227 230 232 232 234 235 238 240 242 244 247 250 252 254 256 258 259 259 260 262 262 264 266 267 270 273 275 278 281 283 286 288 289 291 290 290 291 292 291 291 290
Height
5905 5909 5912 5915 5917 5920 5922 5925 5926 5926 5926 5927 5926 5926 5926 5925 5925 5925 5924 5923 5922 5921 5921 5920 5919 5918 5918 5917 5916 5916 5915 5914 5913 5912 5912 5911 5910 5909 5908 5906 5905 5904 5903 5902
5903 5906 5910 5911 5915 5917 5920 5923 5925 5926 5926 5926 5926 5926 5926 5925 5925 5924 5924 5923 5922 5921 5921 5920 5919 5919 5918 5917 5916 5916 5915 5914 5913 5912 5911 5911 5910 5909 5907 5906 5905 5904 5902 5902
5901 5905 5906 5909 5913 5915 5918 5921 5923 5925 5924 5924 5926 5926 5926 5925 5924 5924 5923 5922 5922 5921 5921 5920 5919 5919 5918 5917 5916 5915 5914 5913 5912 5912 5911 5910 5909 5908 5907 5906 5905 5903 5902 5901
5897 5900 5903 5906 5909 5913 5915 5919 5921 5923 5923 5923 5924 5924 5924 5924 5923 5923 5923 5922 5921 5921 5920 5920 5919 5918 5918 5917 5916 5915 5914 5913 5912 5911 5910 5909 5908 5908 5907 5906 5905 5903 5902 5901
5893 5896 5900 5903 5906 5910 5913 5916 5919 5920 5921 5923 5923 5924 5924 5921 5921 5922 5922 5921 5921 5921 5920 5919 5919 5918 5917 5916 5916 5915 5914 5912 5912 5911 5910 5909 5908 5907 5906 5905 5904 5903 5901 5899
5890 5892 5896 5900 5903 5906 5909 5913 5915 5917 5918 5920 5921 5922 5922 5920 5919 5920 5921 5920 5920 5920 5919 5919 5918 5918 5917 5916 5915 5914 5913 5912 5911 5910 5909 5908 5907 5906 5905 5904 5903 5902 5900 5898
5885 5888 5892 5895 5899 5903 5906 5910 5912 5914 5915 5916 5919 5919 5920 5920 5918 5918 5919 5919 5919 5919 5919 5919 5918 5917 5917 5916 5915 5914 5913 5912 5911 5910 5908 5907 5906 5905 5904 5903 5902 5901 5899 5897
5881 5885 5888 5891 5895 5899 5903 5906 5910 5912 5913 5914 5915 5917 5918 5918 5917 5917 5917 5917 5918 5918 5918 5918 5917 5916 5916 5915 5914 5913 5912 5911 5910 5909 5908 5907 5905 5904 5903 5902 5901 5900 5898 5896
5879 5883 5885 5887 5892 5896 5899 5902 5906 5909 5910 5912 5913 5914 5913 5913 5915 5915 5915 5914 5916 5916 5916 5916 5916 5915 5915 5914 5913 5912 5911 5910 5909 5908 5907 5906 5904 5903 5902 5901 5899 5898 5897 5896
5874 5879 5882 5884 5887 5891 5896 5899 5902 5904 5906 5908 5909 5911 5910 5909 5911 5911 5912 5913 5913 5914 5914 5914 5914 5914 5913 5913 5912 5911 5910 5909 5908 5907 5906 5905 5903 5902 5901 5899 5898 5897 5895 5894
5870 5874 5878 5881 5883 5888 5892 5895 5898 5901 5903 5905 5906 5909 5906 5906 5908 5908 5909 5910 5910 5911 5912 5911 5912 5911 5911 5911 5910 5909 5908 5907 5906 5905 5904 5903 5902 5901 5899 5898 5896 5895 5894 5892
5864 5870 5873 5877 5880 5883 5887 5891 5895 5898 5899 5901 5903 5906 5900 5902 5905 5905 5906 5907 5907 5908 5909 5909 5909 5909 5909 5908 5908 5907 5906 5905 5904 5903 5902 5901 5900 5899 5897 5896 5894 5893 5891 5890
5859 5864 5869 5873 5878 5879 5882 5886 5890 5893 5896 5898 5900 5903 5900 5899 5901 5902 5903 5904 5904 5905 5906 5906 5906 5906 5906 5906 5905 5904 5903 5903 5902 5900 5899 5898 5897 5896 5895 5893 5892 5891 5889 5887
5853 5858 5864 5869 5872 5876 5878 5882 5885 5889 5892 5894 5895 5896 5896 5895 5896 5897 5899 5900 5901 5902 5902 5903 5903 5903 5903 5903 5902 5901 5901 5900 5899 5897 5896 5894 5893 5893 5891 5890 5889 5887 5886 5885
5848 5853 5858 5862 5867 5871 5874 5877 5881 5884 5887 5890 5891 5891 5891 5892 5893 5894 5895 5896 5897 5898 5899 5899 5900 5900 5899 5899 5899 5898 5897 5897 5896 5894 5893 5891 5890 5889 5888 5887 5885 5884 5883 5882
5842 5847 5852 5857 5861 5865 5869 5872 5877 5880 5883 5885 5886 5887 5887 5887 5888 5890 5891 5892 5893 5893 5894 5895 5895 5896 5896 5895 5895 5894 5894 5893 5892 5891 5889 5888 5886 5885 5884 5883 5882 5881 5880 5879
5836 5842 5847 5852 5856 5860 5864 5868 5872 5875 5878 5880 5882 5883 5883 5883 5884 5885 5886 5887 5888 5888 5889 5890 5891 5891 5892 5892 5891 5891 5890 5889 5888 5887 5886 5884 5883 5881 5880 5878 5878 5877 5876 5875
5831 5837 5842 5847 5851 5854 5860 5863 5866 5870 5872 5874 5875 5877 5878 5879 5880 5881 5882 5883 5883 5884 5885 5885 5886 5887 5887 5887 5887 5886 5886 5885 5884 5883 5882 5880 5879 5878 5876 5875 5874 5873 5872 5871
5826 5832 5837 5842 5845 5848 5854 5857 5861 5864 5866 5869 5870 5871 5873 5874 5875 5875 5876 5876 5877 5879 5880 5881 5881 5882 5883 5882 5882 5882 5881 5880 5879 5878 5877 5876 5875 5874 5872 5871 5870 5869 5868 5867
5821 5826 5832 5836 5840 5844 5848 5851 5854 5858 5859 5862 5864 5865 5867 5869 5870 5871 5871 5872 5873 5874 5875 5876 5877 5877 5877 5877 5877 5877 5877 5876 5875 5874 5873 5872 5871 5870 5868 5867 5866 5865 5864 5863
5815 5820 5824 5829 5833 5837 5839 5844 5848 5852 5854 5856 5857 5859 5861 5863 5865 5865 5867 5868 5868 5869 5870 5871 5871 5872 5872 5872 5872 5872 5872 5870 5869 5869 5868 5867 5866 5865 5864 5863 5862 5861 5859 5858
5810 5815 5819 5823 5828 5831 5833 5837 5840 5843 5845 5848 5851 5853 5855 5857 5858 5860 5861 5862 5862 5862 5864 5865 5866 5866 5867 5866 5866 5867 5866 5865 5863 5863 5863 5863 5861 5860 5859 5858 5857 5856 5855 5853
5803 5808 5812 5816 5821 5823 5825 5829 5832 5835 5838 5841 5845 5847 5849 5851 5853 5854 5855 5855 5856 5857 5858 5859 5860 5861 5861 5861 5861 5862 5861 5860 5859 5858 5858 5857 5856 5855 5854 5852 5851 5850 5849 5848
5796 5801 5805 5809 5812 5816 5818 5821 5824 5827 5832 5835 5838 5841 5843 5845 5846 5848 5849 5849 5850 5851 5852 5852 5853 5854 5855 5855 5855 5855 5855 5855 5854 5853 5852 5851 5850 5849 5848 5846 5845 5844 5843 5842
5788 5792 5797 5800 5805 5809 5812 5815 5818 5822 5825 5828 5831 5834 5835 5838 5839 5841 5842 5843 5845 5845 5845 5846 5848 5849 5849 5849 5849 5849 5849 5849 5848 5847 5846 5845 5844 5843 5842 5840 5839 5838 5836 5835
5781 5786 5790 5793 5797 5802 5805 5809 5813 5816 5819 5821 5823 5826 5829 5831 5832 5834 5835 5836 5838 5839 5840 5840 5841 5842 5842 5843 5843 5843 5843 5843 5842 5841 5840 5839 5838 5837 5836 5834 5833 5831 5829 5829